Location: Krakow
(50.0830°N, 19.9170°E)
Time: 06:29:31
(UTC+02:00)

A-11 Canister half - Pass Details

Date: 15 March 2026
Orbit: 1523 x 1684 km, 47.3° (Epoch: 18 April)

Event Time Altitude Azimuth Distance (km) Brightness Sun altitude
Rises 13:09:19 0° 276° (W) 4,821 11.8 35.1°
Reaches altitude 10° 13:12:28 10° 274° (W) 3,813 11.4 34.9°
Maximum altitude 13:22:02 71° 194° (SSW) 1,637 10.2 34.2°
Drops below altitude 10° 13:31:18 10° 112° (ESE) 3,702 11.0 33.5°
Sets 13:34:19 0° 111° (ESE) 4,674 11.4 33.2°
